Wind_Speed
57 55 54 55 52 52 51 47 45 42 39 35 33 30 28 26 21 18 19 20 18 17 13 10 10 11 10 6 5 6 12 13 12 17 25 26 30 34 39 40 43 44 46 47 46
57 57 56 56 55 55 54 51 48 45 42 39 36 33 32 30 25 22 20 21 19 17 16 13 10 12 10 5 5 5 7 9 15 12 20 26 30 30 32 35 39 39 43 45 47
55 59 59 57 57 57 56 53 51 48 46 43 41 38 36 34 31 27 24 22 22 22 19 14 13 17 9 9 2 2 7 9 16 13 15 21 25 25 27 29 34 36 37 41 43
53 59 61 59 59 58 58 56 54 51 50 48 45 42 39 38 36 32 31 26 23 21 21 21 14 18 15 8 11 5 4 9 10 8 7 11 21 22 23 25 28 30 31 33 41
51 53 62 62 58 59 59 58 57 54 53 50 48 46 43 42 40 37 35 33 29 25 21 23 20 22 20 12 12 7 7 5 5 7 5 13 18 18 17 21 21 24 28 28 33
48 50 57 62 62 60 58 60 61 59 57 55 52 49 48 45 44 42 40 37 35 32 27 23 26 24 25 21 16 12 10 11 4 4 6 12 12 10 12 14 17 19 23 23 26
47 47 52 60 64 64 60 59 58 62 61 59 56 54 52 50 48 46 45 43 41 37 33 31 28 30 30 29 25 15 16 14 8 12 8 3 4 8 5 8 8 13 17 20 23
42 47 48 53 61 63 63 61 60 59 61 62 61 58 57 54 53 51 49 48 46 42 39 37 34 33 34 33 30 29 22 23 20 15 14 9 5 3 3 6 9 6 8 15 17
40 44 49 50 55 60 62 64 62 61 62 62 62 64 62 60 58 56 54 53 51 48 46 42 42 40 37 36 36 33 31 27 30 27 21 16 8 14 14 13 10 8 1 6 12
41 42 45 50 52 55 61 62 64 62 62 63 63 63 63 63 61 60 58 58 57 55 52 50 46 46 44 42 39 37 39 36 28 33 33 25 21 22 13 15 12 13 11 6 5
42 42 43 46 51 54 56 61 62 65 65 63 62 64 62 63 64 65 64 61 60 60 58 55 52 52 49 48 47 44 43 42 38 36 37 34 29 26 18 15 11 15 11 6 5
44 44 44 45 46 52 56 57 60 62 66 65 65 64 64 64 65 66 66 67 66 65 63 60 57 57 57 54 52 51 49 47 44 43 42 42 40 34 31 32 32 26 22 18 19
44 46 46 47 47 47 51 57 60 60 62 64 67 67 67 67 66 67 69 70 69 69 69 66 63 61 61 61 59 57 56 53 51 49 48 47 48 44 40 38 36 34 32 28 29
41 46 48 48 48 48 49 52 56 61 63 63 65 67 69 70 70 70 69 69 72 72 73 70 69 70 68 65 63 61 61 60 58 56 56 56 54 54 52 47 43 38 34 34 33
41 41 44 49 50 51 51 52 52 55 58 62 66 68 68 70 72 73 73 73 73 74 74 74 75 75 73 71 70 67 68 66 64 62 61 61 61 60 61 60 52 48 43 41 39
46 44 44 45 47 52 55 56 56 55 55 56 59 63 68 70 71 72 71 72 74 75 77 76 77 79 78 76 75 74 74 73 71 68 66 69 65 67 67 64 60 56 51 48 46
46 50 49 48 47 49 51 55 57 58 60 60 60 59 61 63 66 69 72 73 74 74 74 75 77 78 79 80 80 81 79 76 76 75 76 74 70 74 73 68 67 66 64 58 55
34 40 50 53 52 52 51 51 52 55 57 60 62 63 64 64 63 64 65 68 71 74 76 76 76 76 76 76 79 82 83 85 82 80 81 77 78 80 79 75 73 71 69 68 65
38 36 37 46 51 56 56 55 54 54 54 55 57 58 60 63 67 69 69 69 69 70 71 74 75 78 79 79 77 75 79 81 84 85 86 84 83 85 84 81 81 79 75 73 72
41 41 38 38 40 46 52 57 58 58 57 56 54 56 57 59 61 63 65 68 70 73 74 74 75 76 76 78 79 79 79 80 80 80 80 83 84 87 86 85 88 86 82 81 78
45 42 45 42 39 39 41 45 51 56 59 60 60 61 60 60 59 60 61 63 64 67 70 72 75 75 79 78 78 79 79 80 81 81 80 80 81 79 81 85 88 88 86 84 82
50 46 46 47 43 42 42 43 42 43 46 50 55 58 60 60 61 62 63 65 67 69 71 73 74 75 77 77 79 80 81 82 82 81 80 80 79 79 81 80 81 84 86 86 84
47 51 49 48 48 44 43 43 42 43 45 47 46 46 47 48 49 49 51 54 59 63 67 71 75 79 83 82 81 81 80 82 83 84 81 82 80 81 82 83 80 78 81 82 81
61 48 49 46 50 48 45 45 45 44 43 44 45 48 50 49 49 48 49 50 52 54 57 61 67 74 80 83 83 86 87 87 85 83 84 80 84 83 85 84 82 81 79 80 81
60 53 49 45 45 48 48 47 47 46 47 47 47 47 49 50 51 52 54 55 56 57 57 58 59 62 70 78 82 84 86 87 88 91 90 85 84 86 87 85 84 84 81 80 81
61 56 53 45 43 45 45 47 46 46 45 47 50 52 53 54 57 58 59 60 60 62 64 65 67 67 67 72 77 84 85 86 89 90 90 92 89 93 90 85 85 84 82 81 81
64 58 51 44 39 42 44 45 43 45 45 46 46 49 52 57 62 64 66 67 66 65 67 68 70 70 74 72 73 75 85 88 88 89 90 89 89 94 93 91 87 85 84 83 82
Wind_Direction
196 197 197 196 198 200 200 200 202 202 203 204 205 206 204 207 208 202 198 201 197 192 186 167 153 120 74 96 56 40 68 60 33 18 66 53 52 62 67 57 54 57 54 50 52
198 201 200 200 198 201 202 202 203 204 205 207 207 209 209 208 210 210 206 209 217 208 197 199 170 116 155 90 88 67 56 69 54 45 58 62 54 61 61 57 59 55 58 54 51
202 202 203 203 202 201 205 204 205 206 205 209 210 211 212 213 213 212 209 210 221 226 210 213 164 153 141 133 179 280 26 74 78 53 45 62 67 43 51 51 58 54 56 58 54
206 204 207 206 205 206 206 207 207 208 209 209 210 213 213 214 215 214 213 211 215 220 221 225 196 179 154 172 183 231 60 108 109 57 16 66 78 53 42 43 57 59 53 57 54
211 211 209 210 211 211 210 211 210 211 213 214 213 216 216 216 218 219 217 217 219 219 217 217 207 199 211 196 185 180 168 130 88 85 326 102 70 47 32 26 34 59 62 53 55
212 215 214 214 213 214 214 213 213 214 215 215 215 216 220 220 219 222 223 223 222 227 226 217 219 216 212 220 186 191 183 138 153 142 280 96 57 41 36 29 21 29 55 60 60
215 216 217 217 215 216 217 219 218 216 218 219 218 218 219 221 223 224 227 228 226 224 230 223 222 221 222 218 231 213 191 196 160 150 194 274 53 342 330 12 16 18 20 45 53
217 219 220 220 220 220 219 221 223 222 222 222 221 222 221 223 224 226 228 229 231 231 229 232 225 225 226 234 236 241 200 200 218 170 196 209 236 302 269 312 323 347 16 32 34
221 220 222 223 223 223 223 224 224 226 226 226 226 225 225 225 225 226 229 230 231 232 233 231 233 233 231 230 236 241 243 226 223 241 185 208 215 234 257 267 276 303 67 16 4
224 225 224 224 226 226 226 227 228 229 230 230 230 230 230 230 228 229 230 232 234 233 234 234 233 235 237 234 233 237 243 243 238 232 243 256 228 246 253 247 250 258 275 304 3
225 227 228 228 227 227 229 229 230 232 231 234 235 233 234 234 234 233 233 234 236 238 236 236 236 237 240 241 238 235 239 245 244 240 244 250 252 254 245 243 237 229 247 266 317
227 227 229 229 231 230 230 231 233 234 234 234 235 237 237 237 237 238 237 238 237 239 239 237 236 236 238 241 243 242 239 239 244 245 247 246 250 251 247 234 261 269 274 278 281
233 231 230 230 231 232 233 234 234 235 236 237 238 238 239 238 239 240 240 240 241 242 243 243 243 240 238 238 240 243 245 243 243 244 249 249 249 252 251 254 254 256 264 271 278
240 234 232 231 230 232 234 235 236 237 237 238 239 241 242 242 241 241 243 246 246 244 243 244 246 246 246 245 243 241 245 248 247 244 247 250 253 250 253 252 252 257 260 267 272
239 240 238 234 233 233 233 235 236 237 238 239 240 241 242 244 244 244 244 244 246 247 246 247 248 248 247 247 248 248 248 248 248 249 248 250 253 253 255 255 253 254 255 259 263
241 239 238 239 239 237 236 236 236 237 238 240 241 242 243 244 245 246 246 246 246 247 247 247 248 249 248 247 248 248 248 249 249 248 250 252 251 255 256 257 258 256 254 255 259
243 241 239 238 238 239 240 240 239 239 239 240 241 242 243 245 247 248 249 249 249 248 248 247 248 249 249 250 249 249 249 248 249 249 248 250 252 255 254 254 255 256 257 256 257
246 243 239 238 238 237 237 240 241 242 243 243 244 244 245 246 247 248 250 251 251 252 251 251 250 250 250 250 249 249 250 250 250 250 251 251 250 250 254 253 254 255 256 258 258
254 245 242 238 238 240 239 239 240 240 241 243 245 247 247 247 247 248 248 250 251 253 254 255 254 253 253 252 251 250 249 250 249 248 249 250 250 251 251 254 253 253 253 253 256
261 249 244 240 237 237 239 240 242 242 243 243 245 247 248 250 251 251 252 253 254 255 255 254 255 256 256 255 255 254 253 251 250 249 249 250 250 251 251 250 252 252 252 253 253
255 255 245 242 240 237 237 239 241 243 244 245 246 247 249 251 254 255 256 256 256 255 256 257 257 256 256 256 256 257 255 254 253 253 251 250 249 251 250 252 252 252 253 253 255
244 251 247 241 239 240 240 240 241 242 244 246 247 249 251 253 254 255 258 260 260 261 261 260 260 260 258 255 255 256 256 255 255 252 252 252 253 251 252 250 251 253 253 253 253
225 241 245 241 239 237 239 242 244 246 246 248 249 248 248 249 250 253 258 262 264 264 264 264 263 262 260 257 256 255 254 255 255 253 251 252 250 250 251 250 250 250 252 253 252
222 226 239 238 238 239 241 241 244 246 247 249 250 250 250 252 252 256 259 262 262 262 263 264 266 264 262 261 259 257 255 252 252 254 253 252 250 249 250 249 249 248 248 250 251
220 219 231 231 236 241 242 244 244 247 249 250 252 251 250 250 253 258 260 263 265 265 266 267 268 270 266 265 262 259 257 256 253 250 248 249 249 250 248 248 249 249 247 247 248
213 217 220 223 235 237 242 245 248 249 252 253 255 257 257 256 258 260 263 266 267 269 269 269 270 271 272 269 265 260 259 258 256 253 250 247 247 248 249 249 247 248 247 246 247
210 214 220 218 228 232 236 241 249 252 255 257 260 263 264 264 263 264 265 267 269 270 270 271 272 273 273 273 268 264 258 257 256 255 253 250 249 248 247 247 247 246 246 245 244
Height
10932 10939 10946 10952 10957 10963 10969 10975 10981 10986 10992 10997 11001 11005 11009 11012 11016 11019 11022 11024 11026 11030 11032 11034 11035 11038 11038 11039 11040 11039 11039 11039 11039 11036 11033 11031 11030 11029 11025 11023 11021 11019 11016 11013 11010
10927 10935 10942 10947 10953 10959 10965 10971 10976 10982 10988 10993 10997 11002 11006 11010 11014 11017 11021 11023 11025 11029 11032 11033 11035 11037 11039 11040 11040 11040 11039 11041 11041 11039 11037 11035 11033 11032 11032 11028 11025 11025 11020 11018 11015
10923 10930 10936 10943 10949 10954 10961 10967 10972 10978 10984 10989 10993 10998 11003 11007 11011 11015 11018 11021 11023 11026 11030 11032 11035 11037 11039 11038 11040 11040 11040 11042 11042 11041 11040 11038 11035 11035 11034 11032 11029 11028 11026 11023 11020
10918 10925 10932 10938 10944 10951 10957 10963 10968 10973 10979 10985 10989 10994 10999 11002 11007 11011 11015 11018 11021 11024 11028 11030 11033 11035 11037 11040 11040 11041 11041 11042 11042 11043 11042 11040 11037 11036 11036 11035 11032 11031 11032 11028 11025
10913 10919 10926 10932 10939 10945 10952 10958 10963 10968 10973 10980 10985 10989 10993 10998 11002 11006 11010 11014 11017 11021 11025 11028 11031 11033 11033 11036 11038 11040 11041 11042 11042 11042 11042 11041 11039 11038 11038 11037 11036 11034 11033 11033 11030
10908 10914 10920 10926 10932 10940 10945 10952 10957 10962 10967 10973 10979 10983 10988 10993 10997 11000 11005 11009 11013 11017 11021 11025 11028 11030 11031 11033 11037 11038 11040 11041 11041 11042 11042 11040 11040 11040 11040 11039 11038 11036 11034 11034 11032
10902 10908 10913 10919 10926 10933 10938 10945 10951 10956 10960 10966 10971 10976 10981 10987 10991 10995 10998 11003 11007 11013 11017 11021 11024 11027 11028 11030 11032 11035 11038 11041 11041 11040 11040 11039 11041 11041 11041 11040 11039 11038 11036 11035 11034
10897 10902 10907 10913 10919 10924 10931 10937 10943 10949 10953 10958 10964 10968 10973 10979 10983 10988 10992 10995 11000 11007 11013 11015 11019 11020 11024 11026 11028 11030 11035 11037 11038 11039 11039 11039 11040 11041 11040 11040 11039 11038 11037 11036 11036
10890 10895 10900 10905 10911 10917 10923 10929 10934 10939 10944 10950 10955 10960 10964 10970 10976 10980 10985 10989 10993 10998 11004 11009 11012 11014 11016 11021 11024 11025 11028 11031 11033 11033 11036 11037 11038 11038 11038 11039 11039 11036 11036 11036 11036
10884 10888 10892 10897 10903 10908 10914 10919 10924 10930 10935 10940 10946 10951 10956 10961 10967 10972 10976 10980 10983 10989 10995 11000 11004 11007 11010 11014 11018 11021 11022 11023 11026 11030 11030 11030 11033 11033 11035 11035 11036 11035 11034 11034 11034
10878 10881 10885 10889 10895 10900 10905 10910 10915 10920 10925 10930 10935 10941 10946 10952 10957 10962 10966 10970 10974 10978 10984 10990 10996 11000 11002 11006 11010 11014 11015 11016 11020 11023 11025 11025 11028 11030 11032 11031 11032 11032 11031 11032 11033
10870 10874 10878 10881 10885 10890 10895 10900 10904 10909 10914 10919 10924 10929 10935 10939 10944 10948 10954 10959 10964 10968 10972 10980 10986 10990 10994 10997 11001 11004 11007 11010 11012 11015 11017 11020 11022 11025 11026 11026 11025 11027 11028 11029 11030
10861 10866 10869 10873 10876 10880 10884 10889 10893 10897 10902 10908 10913 10917 10921 10926 10931 10936 10940 10946 10952 10957 10961 10968 10975 10979 10982 10986 10991 10996 10998 11000 11005 11008 11008 11011 11013 11017 11018 11019 11021 11022 11024 11026 11026
10851 10855 10860 10863 10867 10871 10875 10878 10882 10886 10891 10895 10899 10903 10907 10912 10917 10922 10927 10932 10939 10944 10948 10956 10961 10965 10969 10976 10980 10985 10987 10989 10994 10997 10999 11000 11002 11004 11007 11009 11015 11017 11020 11021 11022
10840 10844 10848 10852 10856 10860 10864 10866 10871 10874 10879 10883 10887 10889 10892 10897 10901 10907 10913 10919 10923 10929 10934 10941 10945 10950 10957 10962 10965 10973 10973 10977 10982 10985 10988 10988 10990 10992 10993 10997 11008 11009 11013 11015 11017
10829 10833 10836 10839 10844 10847 10851 10854 10858 10862 10867 10870 10873 10876 10879 10884 10888 10891 10897 10903 10908 10913 10917 10922 10928 10932 10939 10946 10950 10955 10959 10962 10967 10973 10977 10969 10979 10977 10980 10984 10994 10999 11003 11007 11009
10816 10821 10824 10827 10831 10834 10838 10841 10845 10849 10851 10856 10859 10863 10866 10870 10874 10878 10881 10885 10890 10894 10900 10904 10909 10915 10921 10927 10933 10937 10941 10946 10951 10956 10957 10961 10966 10960 10965 10976 10979 10983 10989 10995 10998
10805 10807 10809 10814 10817 10821 10825 10828 10833 10835 10840 10841 10846 10849 10853 10858 10862 10864 10866 10869 10873 10877 10882 10887 10893 10897 10903 10908 10914 10917 10922 10928 10934 10937 10938 10947 10948 10948 10947 10959 10963 10968 10973 10978 10983
10795 10795 10797 10799 10803 10807 10812 10815 10819 10822 10825 10828 10831 10836 10840 10841 10844 10848 10851 10855 10859 10862 10866 10868 10875 10878 10883 10887 10892 10900 10902 10907 10911 10918 10922 10927 10929 10928 10930 10942 10945 10949 10956 10961 10966
10782 10784 10785 10788 10790 10793 10796 10801 10804 10809 10813 10817 10820 10822 10824 10826 10831 10836 10839 10842 10845 10847 10849 10853 10855 10858 10863 10867 10872 10877 10884 10886 10891 10897 10903 10906 10911 10904 10915 10920 10921 10929 10937 10942 10950
10768 10770 10773 10776 10779 10782 10784 10787 10791 10795 10800 10804 10806 10808 10812 10815 10818 10821 10823 10825 10828 10829 10831 10833 10837 10844 10844 10850 10852 10854 10860 10864 10870 10876 10882 10888 10887 10891 10895 10894 10902 10908 10917 10926 10932
10752 10756 10758 10763 10767 10770 10774 10776 10780 10784 10787 10789 10791 10796 10800 10802 10805 10807 10809 10810 10811 10812 10813 10814 10816 10818 10821 10828 10830 10833 10836 10840 10845 10852 10860 10865 10869 10873 10870 10877 10882 10889 10896 10904 10914
10732 10740 10744 10749 10754 10758 10762 10766 10769 10773 10776 10777 10780 10783 10786 10788 10791 10793 10796 10796 10796 10794 10794 10794 10793 10793 10795 10801 10807 10811 10815 10815 10820 10826 10837 10842 10848 10847 10848 10855 10864 10870 10874 10881 10891
10713 10722 10729 10736 10741 10748 10752 10755 10759 10762 10765 10766 10769 10771 10773 10776 10779 10781 10781 10780 10779 10778 10777 10775 10773 10773 10771 10773 10780 10781 10787 10794 10799 10802 10806 10820 10818 10825 10822 10834 10842 10850 10855 10862 10866
10693 10706 10714 10724 10730 10737 10741 10744 10748 10751 10753 10755 10757 10759 10761 10763 10765 10766 10765 10764 10763 10762 10761 10759 10757 10755 10752 10750 10751 10754 10757 10761 10770 10775 10780 10789 10795 10791 10799 10812 10820 10824 10835 10842 10847
10678 10690 10701 10711 10720 10725 10730 10735 10738 10740 10743 10744 10745 10747 10749 10751 10750 10750 10748 10747 10746 10745 10743 10741 10737 10736 10733 10729 10727 10730 10730 10732 10735 10741 10752 10760 10769 10763 10775 10788 10793 10800 10812 10820 10824
10665 10678 10692 10702 10708 10714 10720 10725 10729 10731 10732 10733 10734 10734 10734 10734 10733 10732 10730 10728 10726 10725 10724 10721 10718 10716 10710 10710 10706 10707 10703 10705 10707 10710 10718 10729 10734 10741 10751 10761 10769 10777 10785 10792 10801